Date String (YYYY-MM-DD hh:mm:ss) UTC,Instrument flags,Ambient pressure (hPa),Sample flow (lpm),Bypass flow (lpm),Sample temperature (°C),Ambient temperature (°C),ASC tube jacket temperature (°C),LED temperature (°C),Box temperature (°C),Sample RH (%),Span deviation,Mass concentration (μg/m³),Mass concentration (μg/m³),Mass concentration (μg/m³)
DateTimeUTC,F1_M11,P_M11,Q1_M11,Q2_M11,T1_M11,T2_M11,T3_M11,T4_M11,T5_M11,U1_M11,ZSPAN_M11,X0_M11,X2_M11,X1_M11
2023-04-06 11:00:00,,0833.8,5.00,0.00,22.5,20.9,00.0,30.9,23.6,06.5,0000.0,0003.31,0001.35,0001.10
2023-04-06 11:01:00,,0833.8,4.99,0.00,22.4,20.6,00.0,30.9,23.5,06.6,0000.0,0003.31,0001.35,0001.09
2023-04-06 11:02:00,,0833.8,5.01,0.00,22.3,20.3,00.0,30.8,23.4,06.6,0000.0,0003.33,0001.37,0001.08
2023-04-06 11:03:00,,0833.8,5.01,0.00,22.3,20.5,00.0,30.8,23.6,06.7,0000.0,0003.09,0001.36,0001.08
2023-04-06 11:04:00,,0833.8,5.00,0.00,22.4,21.6,00.0,30.7,24.1,06.6,0000.0,0003.03,0001.33,0001.07
2023-04-06 11:05:00,,0833.9,4.99,0.00,22.5,22.7,00.0,30.7,24.5,06.4,0000.0,0003.08,0001.32,0001.07
2023-04-06 11:06:00,,0833.9,5.00,0.00,22.7,23.2,00.0,30.7,24.6,06.3,0000.0,0003.16,0001.34,0001.06
2023-04-06 11:07:00,,0833.9,4.99,0.00,22.7,22.9,00.0,30.8,24.3,06.3,0000.0,0003.24,0001.36,0001.06
2023-04-06 11:08:00,,0833.9,4.99,0.00,22.6,22.3,00.0,30.9,24.1,06.4,0000.0,0002.68,0001.31,0001.05
2023-04-06 11:09:00,,0833.8,5.00,0.00,22.6,21.7,00.0,30.9,24.0,06.6,0000.0,0002.08,0001.33,0001.05
2023-04-06 11:10:00,,0833.8,4.99,0.00,22.5,21.3,00.0,30.9,23.8,06.9,0000.0,0002.36,0001.33,0001.06
2023-04-06 11:11:00,,0833.8,5.00,0.00,22.4,20.9,00.0,30.9,23.6,07.2,0000.0,0002.89,0001.36,0001.08
2023-04-06 11:12:00,,0833.8,5.01,0.00,22.3,20.5,00.0,30.8,23.4,07.3,0000.0,0003.05,0001.37,0001.08
2023-04-06 11:13:00,,0833.8,5.01,0.00,22.2,20.2,00.0,30.8,23.3,06.9,0000.0,0002.95,0001.33,0001.09
2023-04-06 11:14:00,,0833.9,5.00,0.00,22.1,20.2,00.0,30.7,23.4,07.1,0000.0,0002.96,0001.35,0001.09
2023-04-06 11:15:00,,0833.9,5.00,0.00,22.2,21.2,00.0,30.7,23.9,07.0,0000.0,0003.01,0001.38,0001.10
2023-04-06 11:16:00,,0833.9,4.99,0.00,22.4,22.3,00.0,30.6,24.3,06.9,0000.0,0002.93,0001.37,0001.11
2023-04-06 11:17:00,,0833.9,5.00,0.00,22.5,23.1,00.0,30.7,24.5,06.6,0000.0,0002.89,0001.38,0001.11
2023-04-06 11:18:00,,0833.9,5.00,0.00,22.6,22.8,00.0,30.7,24.3,06.3,0000.0,0002.80,0001.36,0001.11
2023-04-06 11:19:00,,0833.9,4.98,0.00,22.5,22.3,00.0,30.8,24.0,06.2,0000.0,0002.91,0001.40,0001.13
2023-04-06 11:20:00,,0833.9,5.01,0.00,22.4,21.8,00.0,30.8,23.8,06.3,0000.0,0002.89,0001.39,0001.13
2023-04-06 11:21:00,,0833.9,5.01,0.00,22.3,21.3,00.0,30.8,23.6,06.7,0000.0,0002.57,0001.41,0001.13
2023-04-06 11:22:00,,0833.9,5.00,0.00,22.3,20.9,00.0,30.8,23.5,06.8,0000.0,0002.22,0001.40,0001.13
2023-04-06 11:23:00,,0833.9,4.99,0.00,22.2,20.5,00.0,30.7,23.3,06.8,0000.0,0002.05,0001.42,0001.13
2023-04-06 11:24:00,,0833.9,5.01,0.00,22.1,20.2,00.0,30.7,23.2,06.8,0000.0,0002.08,0001.43,0001.14
2023-04-06 11:25:00,,0833.9,5.01,0.00,22.1,20.5,00.0,30.6,23.5,06.7,0000.0,0002.51,0001.47,0001.15
2023-04-06 11:26:00,,0833.9,5.00,0.00,22.2,21.5,00.0,30.6,23.9,06.6,0000.0,0002.58,0001.48,0001.16
2023-04-06 11:27:00,,0833.9,5.00,0.00,22.4,22.5,00.0,30.6,24.3,06.5,0000.0,0002.60,0001.49,0001.16
2023-04-06 11:28:00,,0833.9,4.99,0.00,22.5,22.9,00.0,30.6,24.4,06.6,0000.0,0002.59,0001.47,0001.15
2023-04-06 11:29:00,,0833.9,4.98,0.00,22.4,22.4,00.0,30.7,24.1,06.7,0000.0,0002.70,0001.51,0001.16
2023-04-06 11:30:00,,0833.9,5.00,0.00,22.4,22.0,00.0,30.7,23.8,06.7,0000.0,0002.89,0001.55,0001.16
2023-04-06 11:31:00,,0833.8,5.00,0.00,22.3,21.5,00.0,30.7,23.7,06.7,0000.0,0002.90,0001.55,0001.17
2023-04-06 11:32:00,,0833.8,5.01,0.00,22.3,21.2,00.0,30.7,23.6,06.8,0000.0,0002.91,0001.59,0001.19
2023-04-06 11:33:00,,0833.9,4.99,0.00,22.3,20.8,00.0,30.7,23.6,06.9,0000.0,0003.09,0001.62,0001.20
2023-04-06 11:34:00,,0833.9,4.99,0.00,22.2,20.5,00.0,30.7,23.4,06.8,0000.0,0003.33,0001.62,0001.21
2023-04-06 11:35:00,,0833.8,5.00,0.00,22.1,20.2,00.0,30.6,23.3,07.0,0000.0,0003.37,0001.64,0001.23
2023-04-06 11:36:00,,0833.8,5.02,0.00,22.1,21.0,00.0,30.6,23.7,07.2,0000.0,0003.06,0001.65,0001.25
2023-04-06 11:37:00,,0833.8,5.01,0.00,22.3,22.1,00.0,30.5,24.2,07.2,0000.0,0002.97,0001.65,0001.27
2023-04-06 11:38:00,,0833.9,4.99,0.00,22.4,23.0,00.0,30.5,24.4,07.2,0000.0,0003.02,0001.69,0001.30
2023-04-06 11:39:00,,0833.9,5.00,0.00,22.5,22.9,00.0,30.6,24.2,07.2,0000.0,0002.99,0001.70,0001.33
2023-04-06 11:40:00,,0833.9,5.01,0.00,22.4,22.3,00.0,30.7,23.8,07.3,0000.0,0002.90,0001.68,0001.35
2023-04-06 11:41:00,,0833.9,5.00,0.00,22.3,21.6,00.0,30.7,23.6,07.3,0000.0,0002.65,0001.64,0001.37
2023-04-06 11:42:00,,0833.9,4.99,0.00,22.2,21.1,00.0,30.7,23.4,07.3,0000.0,0002.65,0001.66,0001.40
2023-04-06 11:43:00,,0834.0,5.01,0.00,22.1,20.6,00.0,30.7,23.2,07.4,0000.0,0002.74,0001.66,0001.41
2023-04-06 11:44:00,,0833.9,5.01,0.00,22.0,20.2,00.0,30.6,23.1,07.4,0000.0,0002.69,0001.67,0001.43
2023-04-06 11:45:00,,0834.0,5.01,0.00,22.0,20.2,00.0,30.6,23.3,07.3,0000.0,0002.45,0001.69,0001.44
2023-04-06 11:46:00,,0834.0,5.00,0.00,22.1,21.3,00.0,30.5,23.8,07.1,0000.0,0002.47,0001.72,0001.46
2023-04-06 11:47:00,,0834.1,4.99,0.00,22.2,22.3,00.0,30.5,24.2,07.0,0000.0,0002.52,0001.71,0001.46
2023-04-06 11:48:00,,0834.1,5.00,0.00,22.4,22.9,00.0,30.5,24.3,06.9,0000.0,0002.51,0001.70,0001.45
2023-04-06 11:49:00,,0834.1,5.00,0.00,22.4,22.5,00.0,30.6,24.0,06.8,0000.0,0002.53,0001.69,0001.44
2023-04-06 11:50:00,,0834.1,4.99,0.00,22.3,21.8,00.0,30.6,23.6,07.1,0000.0,0002.61,0001.73,0001.45
2023-04-06 11:51:00,,0834.0,5.01,0.00,22.2,21.1,00.0,30.6,23.3,07.3,0000.0,0003.23,0001.76,0001.45
2023-04-06 11:52:00,,0834.1,4.99,0.00,22.1,20.6,00.0,30.6,23.2,07.4,0000.0,0003.36,0001.80,0001.45
2023-04-06 11:53:00,,0834.1,5.00,0.00,22.0,20.2,00.0,30.6,23.1,07.6,0000.0,0003.35,0001.81,0001.45
2023-04-06 11:54:00,,0834.1,5.00,0.00,21.9,19.9,00.0,30.5,23.1,07.7,0000.0,0003.22,0001.78,0001.45
2023-04-06 11:55:00,,0834.1,5.01,0.00,22.0,20.5,00.0,30.5,23.4,07.6,0000.0,0003.11,0001.77,0001.45
2023-04-06 11:56:00,,0834.1,5.01,0.00,22.1,21.7,00.0,30.4,23.9,07.5,0000.0,0003.12,0001.77,0001.44
2023-04-06 11:57:00,,0834.2,5.01,0.00,22.3,22.6,00.0,30.4,24.2,07.4,0000.0,0003.14,0001.76,0001.44
2023-04-06 11:58:00,,0834.2,4.99,0.00,22.4,22.9,00.0,30.5,24.2,07.3,0000.0,0003.12,0001.77,0001.45
2023-04-06 11:59:00,,0834.2,4.99,0.00,22.3,22.3,00.0,30.6,23.8,07.3,0000.0,0003.16,0001.80,0001.46
